When you browse on this site, cookies collect data to enhance your experience and personalize the content and advertising you see.
Visit our Privacy Policy to learn more. By continuing to use the site, you agree to this use of cookies and data.
  • En España
  • Lista de países
  • Para 7 días
  • Temperatura del agua
  • El tiempo en el mapa
  • Informadores
  • user-avatar
    Iniciar sesión

    Tiempo cada hora Wiktoria

    Hoy, 29 Mayo, Viernes

    Tiempo Temperatura Precipitaciones Viento Presión Humedad
    00:00 +8°C° 0 mm 0 mps 757 mmHg 88%
    01:00 +8°C° 0 mm 0 mps 757 mmHg 89%
    02:00 +7°C° 0 mm 0 mps 757 mmHg 90%
    03:00 +7°C° 0 mm 0 mps 757 mmHg 91%
    04:00 +7°C° 0 mm 0 mps 757 mmHg 91%
    05:00 +7°C° 0 mm 0 mps 757 mmHg 91%
    06:00 +6°C° 0 mm 0 mps 758 mmHg 91%
    07:00 +6°C° 0 mm 0 mps 758 mmHg 92%
    08:00 +9°C° 0 mm 1 mps 758 mmHg 87%
    09:00 +10°C° 0 mm 1 mps 758 mmHg 83%
    10:00 +12°C° 0 mm 1 mps 759 mmHg 78%
    11:00 +14°C° 0 mm 1 mps 758 mmHg 74%
    12:00 +15°C° 0 mm 2 mps 758 mmHg 69%
    13:00 +16°C° 0 mm 2 mps 757 mmHg 65%
    14:00 +16°C° 0 mm 2 mps 757 mmHg 66%
    15:00 +16°C° 0 mm 1 mps 757 mmHg 67%
    16:00 +16°C° 0 mm 1 mps 757 mmHg 68%
    17:00 +14°C° 0 mm 1 mps 757 mmHg 72%
    18:00 +12°C° 0 mm 2 mps 757 mmHg 77%
    19:00 +10°C° 0 mm 2 mps 758 mmHg 82%
    20:00 +9°C° 0 mm 2 mps 758 mmHg 83%
    21:00 +9°C° 0 mm 2 mps 758 mmHg 85%
    22:00 +8°C° 0 mm 2 mps 758 mmHg 86%
    23:00 +8°C° 0 mm 2 mps 757 mmHg 88%

    Mañana, 30 Mayo, Sábado

    Tiempo Temperatura Precipitaciones Viento Presión Humedad
    00:00 +7°C° 0 mm 3 mps 757 mmHg 89%
    01:00 +7°C° 0 mm 3 mps 757 mmHg 91%
    02:00 +7°C° 0 mm 3 mps 757 mmHg 92%
    03:00 +5°C° 0 mm 3 mps 757 mmHg 93%
    04:00 +5°C° 0 mm 3 mps 757 mmHg 93%
    05:00 +5°C° 0 mm 3 mps 757 mmHg 93%
    06:00 +5°C° 0 mm 3 mps 757 mmHg 93%
    07:00 +4°C° 0 mm 3 mps 757 mmHg 93%
    08:00 +6°C° 0 mm 4 mps 756 mmHg 88%
    09:00 +8°C° 0 mm 5 mps 756 mmHg 82%
    10:00 +9°C° 0 mm 5 mps 756 mmHg 76%
    11:00 +11°C° 0 mm 6 mps 755 mmHg 72%
    12:00 +13°C° 0 mm 6 mps 754 mmHg 67%
    13:00 +15°C° 0 mm 6 mps 753 mmHg 63%
    14:00 +14°C° 0 mm 6 mps 753 mmHg 64%
    15:00 +14°C° 0 mm 6 mps 752 mmHg 65%
    16:00 +14°C° 0 mm 5 mps 751 mmHg 66%
    17:00 +13°C° 0 mm 5 mps 751 mmHg 72%
    18:00 +12°C° 0 mm 4 mps 751 mmHg 79%
    19:00 +11°C° 0 mm 4 mps 751 mmHg 85%
    20:00 +11°C° 0 mm 4 mps 751 mmHg 83%
    21:00 +11°C° 0 mm 4 mps 750 mmHg 81%
    22:00 +10°C° 0 mm 5 mps 750 mmHg 80%
    23:00 +10°C° 0 mm 5 mps 750 mmHg 76%

    Pasado mañana, 31 Mayo, Domingo

    Tiempo Temperatura Precipitaciones Viento Presión Humedad
    00:00 +10°C° 0 mm 5 mps 750 mmHg 73%
    01:00 +10°C° 0 mm 5 mps 750 mmHg 70%
    02:00 +11°C° 0 mm 4 mps 749 mmHg 70%
    03:00 +11°C° 0 mm 4 mps 749 mmHg 70%
    04:00 +11°C° 0 mm 3 mps 749 mmHg 70%
    05:00 +11°C° 0 mm 3 mps 749 mmHg 71%
    06:00 +10°C° 0 mm 3 mps 749 mmHg 72%
    07:00 +10°C° 0 mm 3 mps 749 mmHg 73%
    08:00 +11°C° 0.1 mm 3 mps 749 mmHg 74%
    09:00 +11°C° 0.1 mm 3 mps 749 mmHg 75%
    10:00 +11°C° 0.1 mm 3 mps 749 mmHg 76%
    11:00 +12°C° 0 mm 4 mps 748 mmHg 72%
    12:00 +13°C° 0 mm 4 mps 748 mmHg 68%
    13:00 +14°C° 0 mm 4 mps 748 mmHg 65%
    14:00 +14°C° 0 mm 4 mps 747 mmHg 67%
    15:00 +14°C° 0 mm 3 mps 747 mmHg 69%
    16:00 +14°C° 0 mm 3 mps 746 mmHg 71%
    17:00 +13°C° 0.1 mm 3 mps 746 mmHg 75%
    18:00 +12°C° 0.1 mm 3 mps 746 mmHg 79%
    19:00 +11°C° 0.1 mm 3 mps 746 mmHg 84%
    20:00 +11°C° 0.1 mm 3 mps 746 mmHg 84%
    21:00 +11°C° 0.1 mm 3 mps 745 mmHg 84%
    22:00 +11°C° 0.1 mm 3 mps 745 mmHg 85%
    23:00 +10°C° 0 mm 3 mps 745 mmHg 85%

    1 Junio, Lunes

    Tiempo Temperatura Precipitaciones Viento Presión Humedad
    00:00 +10°C° 0 mm 3 mps 744 mmHg 84%
    01:00 +9°C° 0 mm 3 mps 744 mmHg 84%
    02:00 +10°C° 0 mm 3 mps 743 mmHg 83%
    03:00 +10°C° 0 mm 4 mps 742 mmHg 81%
    04:00 +10°C° 0 mm 4 mps 742 mmHg 80%
    05:00 +10°C° 1.9 mm 4 mps 742 mmHg 85%
    06:00 +8°C° 1.9 mm 4 mps 742 mmHg 90%
    07:00 +8°C° 1.9 mm 4 mps 742 mmHg 95%
    08:00 +8°C° 0.8 mm 5 mps 743 mmHg 92%
    09:00 +8°C° 0.8 mm 5 mps 743 mmHg 89%
    10:00 +8°C° 0.8 mm 6 mps 744 mmHg 86%
    11:00 +8°C° 0.4 mm 6 mps 744 mmHg 84%
    12:00 +7°C° 0.4 mm 6 mps 745 mmHg 82%
    13:00 +7°C° 0.4 mm 6 mps 745 mmHg 81%
    14:00 +7°C° 0.1 mm 6 mps 746 mmHg 77%
    15:00 +7°C° 0.1 mm 6 mps 746 mmHg 73%
    16:00 +8°C° 0.1 mm 6 mps 747 mmHg 70%
    17:00 +6°C° 0 mm 5 mps 747 mmHg 72%
    18:00 +5°C° 0 mm 5 mps 748 mmHg 74%
    19:00 +4°C° 0 mm 4 mps 749 mmHg 77%
    20:00 +4°C° 0.1 mm 4 mps 750 mmHg 80%
    21:00 +3°C° 0.1 mm 4 mps 750 mmHg 83%
    22:00 +3°C° 0.1 mm 4 mps 751 mmHg 86%
    23:00 +3°C° 0.1 mm 4 mps 751 mmHg 86%

    2 Junio, Martes

    Tiempo Temperatura Precipitaciones Viento Presión Humedad
    00:00 +4°C° 0.1 mm 4 mps 751 mmHg 86%
    01:00 +4°C° 0.1 mm 4 mps 752 mmHg 86%
    02:00 +4°C° 0 mm 4 mps 752 mmHg 86%
    03:00 +4°C° 0 mm 4 mps 752 mmHg 85%
    04:00 +4°C° 0 mm 4 mps 752 mmHg 84%
    05:00 +3°C° 0 mm 3 mps 752 mmHg 86%
    06:00 +3°C° 0 mm 3 mps 753 mmHg 88%
    07:00 +3°C° 0 mm 3 mps 753 mmHg 90%
    08:00 +4°C° 0 mm 3 mps 754 mmHg 86%
    09:00 +7°C° 0 mm 3 mps 754 mmHg 82%
    10:00 +9°C° 0 mm 3 mps 754 mmHg 78%
    11:00 +10°C° 0 mm 3 mps 754 mmHg 75%
    12:00 +11°C° 0 mm 3 mps 754 mmHg 72%
    13:00 +12°C° 0 mm 4 mps 754 mmHg 70%
    14:00 +11°C° 0 mm 3 mps 754 mmHg 73%
    15:00 +11°C° 0 mm 3 mps 754 mmHg 76%
    16:00 +12°C° 0 mm 2 mps 754 mmHg 79%
    17:00 +10°C° 0 mm 2 mps 754 mmHg 83%
    18:00 +9°C° 0 mm 2 mps 755 mmHg 87%
    19:00 +9°C° 0 mm 2 mps 755 mmHg 91%
    20:00 +8°C° 0 mm 3 mps 755 mmHg 92%
    21:00 +7°C° 0 mm 3 mps 756 mmHg 93%
    22:00 +7°C° 0 mm 3 mps 756 mmHg 94%
    23:00 +5°C° 0 mm 3 mps 756 mmHg 94%

    3 Junio, Miércoles

    Tiempo Temperatura Precipitaciones Viento Presión Humedad
    00:00 +5°C° 0 mm 3 mps 756 mmHg 94%
    01:00 +5°C° 0 mm 3 mps 756 mmHg 95%
    02:00 +5°C° 0 mm 3 mps 756 mmHg 95%
    03:00 +5°C° 0 mm 3 mps 756 mmHg 95%
    04:00 +5°C° 0 mm 3 mps 757 mmHg 95%
    05:00 +5°C° 0 mm 3 mps 757 mmHg 95%
    06:00 +5°C° 0 mm 4 mps 758 mmHg 95%
    07:00 +5°C° 0 mm 4 mps 759 mmHg 94%
    08:00 +7°C° 0 mm 5 mps 759 mmHg 87%
    09:00 +8°C° 0 mm 6 mps 759 mmHg 79%
    10:00 +10°C° 0 mm 7 mps 760 mmHg 72%
    11:00 +10°C° 0 mm 7 mps 760 mmHg 69%
    12:00 +11°C° 0 mm 7 mps 759 mmHg 65%
    13:00 +12°C° 0 mm 7 mps 759 mmHg 62%
    14:00 +11°C° 0 mm 6 mps 759 mmHg 63%
    15:00 +11°C° 0 mm 6 mps 759 mmHg 65%
    16:00 +10°C° 0 mm 5 mps 759 mmHg 67%
    17:00 +9°C° 0 mm 5 mps 760 mmHg 71%
    18:00 +7°C° 0 mm 5 mps 760 mmHg 76%
    19:00 +6°C° 0 mm 4 mps 761 mmHg 81%
    20:00 +5°C° 0 mm 4 mps 761 mmHg 83%
    21:00 +5°C° 0 mm 4 mps 761 mmHg 84%
    22:00 +5°C° 0 mm 4 mps 761 mmHg 86%
    23:00 +4°C° 0 mm 4 mps 761 mmHg 86%
    Mostrar más